Regional Weather Roundup
Issued by NWS

Home | Current Version | Previous Version | Graphics & Text | Print | Product List | Glossary On
Versions: 1 2 3 4 5 6 7 8 9 10 11 12 13 14 15 16 17 18 19 20 21 22 23 24 25 26 27 28 29 30 31 32 33 34 35 36 37 38 39 40 41 42 43 44 45 46 47 48 49 50
038
ASUS43 KLSX 292007
RWRMO

WEATHER SUMMARY FOR MISSOURI
NATIONAL WEATHER SERVICE SPRINGFIELD MO
300 PM CDT THU SEP 29 2016

NOTE: "FAIR" INDICATES FEW OR NO CLOUDS BELOW 12,000 FEET WITH NO
       SIGNIFICANT WEATHER AND/OR OBSTRUCTIONS TO VISIBILITY.
       CURRENT SKY AND/OR WEATHER CONDITIONS ARE NOT AVAILABLE FOR
       CHILLICOTHE AND FARMINGTON.

MOZ001>031-035>038-043-044-053-054-292100-
...NORTHERN AND WESTERN MISSOURI...

CITY           SKY/WX    TMP DP  RH WIND       PRES   REMARKS
KANSAS CTY INT MOSUNNY   71  48  43 N12       30.32F
KANSAS C DTWN  SUNNY     74  48  39 N9        30.30F
LEE`S SUMMIT   SUNNY     71  45  39 NE10      30.31F
ST JOSEPH      SUNNY     73  48  41 NE13      30.33F
CHILLICOTHE      N/A     75  48  38 N8        30.30F
KIRKSVILLE     SUNNY     74  51  44 N17       30.26F

$$
MOZ066>068-077>081-088>096-101>105-292100-
...SOUTHWEST MISSOURI...

CITY           SKY/WX    TMP DP  RH WIND       PRES   REMARKS
SPRINGFIELD    SUNNY     72  45  37 N17       30.25F
JOPLIN         SUNNY     71  48  43 N10       30.29F
BRANSON        SUNNY     73  45  35 NW14G20   30.25F

$$
MOZ032>034-039>042-045>050-055>058-069>072-292100-
...CENTRAL MISSOURI...

CITY           SKY/WX    TMP DP  RH WIND       PRES   REMARKS
COLUMBIA       SUNNY     76  50  40 N12G20    30.22F
JEFFERSON CITY SUNNY     75  50  41 NW10G18   30.21F
ROLLA          MOSUNNY   71  53  52 N14       30.20F
SEDALIA        SUNNY     76  46  34 NW15G22   30.27F
WHITEMAN AFB   MOSUNNY   73  47  39 NW14      30.26F
OSAGE BEACH    MOSUNNY   73  52  47 NW12G17   30.23F

$$
MOZ051-052-059>065-292100-
...EAST CENTRAL MISSOURI...

CITY           SKY/WX    TMP DP  RH WIND       PRES   REMARKS
ST LOUIS INTL  PTSUNNY   69  53  56 N14G23    30.17F
SPIRIT OF STL  CLOUDY    67  55  65 NW10      30.17F
ST CHARLES     PTSUNNY   70  55  59 NW17G24   30.16F

$$
MOZ072>076-082>087-097>100-106>115-292100-
...SOUTH CENTRAL AND SOUTHEAST MISSOURI...

CITY           SKY/WX    TMP DP  RH WIND       PRES   REMARKS
CAPE GIRARDEAU MOSUNNY   68  53  58 NW12G20   30.12F
FARMINGTON     CLOUDY    63  54  72 NW10      30.19F
POPLAR BLUFF   MOSUNNY   70  55  59 N13       30.14F
WEST PLAINS    SUNNY     73  47  39 N16G25    30.21F

$$



USA.gov is the U.S. government's official web portal to all federal, state and local government web resources and services.